Location: Sobotiste
(48.7170°N, 17.4000°E)
Time: 08:20:11
(UTC+01:00)

Tiangong 2 - Visible Passes

Search period start: 16 December 2017 00:00
Search period end: 26 December 2017 00:00
Orbit: 386 x 390 km, 42.8° (Epoch: 15 December)

Date Brightness Start Highest point End Pass type
(mag) Time Alt. Az. Time Alt. Az. Time Alt. Az.
24 Dec 3.2 18:08:05 10° SSW 18:10:00 18° S 18:10:00 18° S visible
25 Dec 3.5 17:10:19 10° SSW 17:12:07 14° SSE 17:13:57 10° ESE visible
25 Dec 3.9 18:45:36 10° SW 18:46:31 16° SW 18:46:31 16° SW visible
